2022/12/20 00:00:00,44.6,-3.2
2022/12/20 00:10:00,44.5,-3.1
2022/12/20 00:20:00,44.5,-2.8
2022/12/20 00:30:00,44.5,-2.7
2022/12/20 00:40:00,44.4,-2.7
2022/12/20 00:50:00,44.2,-2.6
2022/12/20 01:00:00,44.0,-2.4
2022/12/20 01:10:00,44.0,-2.6
2022/12/20 01:20:00,44.1,-2.5
2022/12/20 01:30:00,44.1,-2.5
2022/12/20 01:40:00,44.1,-2.4
2022/12/20 01:50:00,44.1,-2.2
2022/12/20 02:00:00,44.0,-2.4
2022/12/20 02:10:00,44.0,-2.2
2022/12/20 02:20:00,43.9,-2.2
2022/12/20 02:30:00,43.8,-2.2
2022/12/20 02:40:00,43.8,-2.0
2022/12/20 02:50:00,43.7,-2.0
2022/12/20 03:00:00,43.5,-2.1
2022/12/20 03:10:00,43.2,-1.9
2022/12/20 03:20:00,43.2,-2.0
2022/12/20 03:30:00,43.1,-1.8
2022/12/20 03:40:00,43.2,-1.8
2022/12/20 03:50:00,43.0,-1.9
2022/12/20 04:00:00,43.2,-1.9
2022/12/20 04:10:00,43.3,-1.7
2022/12/20 04:20:00,43.3,-1.6
2022/12/20 04:30:00,43.3,-1.7
2022/12/20 04:40:00,43.3,-1.8
2022/12/20 04:50:00,43.2,-1.8
2022/12/20 05:00:00,43.2,-1.7
2022/12/20 05:10:00,43.3,-1.6
2022/12/20 05:20:00,43.2,-1.6
2022/12/20 05:30:00,43.0,-1.5
2022/12/20 05:40:00,43.0,-1.2
2022/12/20 05:50:00,43.0,-1.4
2022/12/20 06:00:00,43.0,-1.3
2022/12/20 06:10:00,42.9,-0.9
2022/12/20 06:20:00,42.9,-1.5
2022/12/20 06:30:00,42.9,-1.1
2022/12/20 06:40:00,42.9,-1.3
2022/12/20 06:50:00,42.9,-1.4
2022/12/20 07:00:00,42.9,-1.2
2022/12/20 07:10:00,42.7,-0.7
2022/12/20 07:20:00,42.7,-1.0
2022/12/20 07:30:00,42.5,-0.9
2022/12/20 07:40:00,42.3,-0.9
2022/12/20 07:50:00,42.1,-0.9
2022/12/20 08:00:00,42.0,-0.8
2022/12/20 08:10:00,41.9,-0.8
2022/12/20 08:20:00,41.8,-0.7
2022/12/20 08:30:00,41.8,-0.6
2022/12/20 08:40:00,41.7,-0.6
2022/12/20 08:50:00,41.7,-0.5
2022/12/20 09:00:00,41.7,-0.3
2022/12/20 09:10:00,41.6,-0.1
2022/12/20 09:20:00,41.6, 0.3
2022/12/20 09:30:00,41.6, 0.2
2022/12/20 09:40:00,41.4, 0.7
2022/12/20 09:50:00,41.8, 1.0
2022/12/20 10:00:00,44.0, 1.2
2022/12/20 10:10:00,43.9, 1.1
2022/12/20 10:20:00,43.8, 1.2
2022/12/20 10:30:00,---, 1.7
2022/12/20 10:40:00,37.7, 1.5
2022/12/20 10:50:00,37.7, 2.1
2022/12/20 11:00:00,37.9, 2.2
2022/12/20 11:10:00,37.8, 2.0
2022/12/20 11:20:00,37.6, 2.5
2022/12/20 11:30:00,37.5, 2.6
2022/12/20 11:40:00,37.4, 2.6
2022/12/20 11:50:00,37.3, 2.9
2022/12/20 12:00:00,37.2, 2.8
2022/12/20 12:10:00,37.2, 2.7
2022/12/20 12:20:00,37.1, 3.1
2022/12/20 12:30:00,37.1, 2.9
2022/12/20 12:40:00,37.0, 2.6
2022/12/20 12:50:00,37.0, 2.7
2022/12/20 13:00:00,36.9, 2.8
2022/12/20 13:10:00,36.9, 2.4
2022/12/20 13:20:00,36.8, 2.5
2022/12/20 13:30:00,36.8, 2.4
2022/12/20 13:40:00,36.7, 2.3
2022/12/20 13:50:00,36.6, 2.6
2022/12/20 14:00:00,36.7, 2.5
2022/12/20 14:10:00,36.6, 2.4
2022/12/20 14:20:00,36.5, 1.9
2022/12/20 14:30:00,36.5, 2.1
2022/12/20 14:40:00,36.4, 2.1
2022/12/20 14:50:00,36.4, 1.9
2022/12/20 15:00:00,36.3, 2.0
2022/12/20 15:10:00,36.3, 2.0
2022/12/20 15:20:00,36.1, 2.0
2022/12/20 15:30:00,36.1, 1.8
2022/12/20 15:40:00,36.1, 1.6
2022/12/20 15:50:00,36.1, 1.5
2022/12/20 16:00:00,36.0, 1.9
2022/12/20 16:10:00,35.9, 1.5
2022/12/20 16:20:00,35.9, 1.2
2022/12/20 16:30:00,35.8, 1.1
2022/12/20 16:40:00,35.7, 0.9
2022/12/20 16:50:00,35.7, 0.8
2022/12/20 17:00:00,35.7, 1.0
2022/12/20 17:10:00,35.7, 0.5
2022/12/20 17:20:00,35.7, 0.6
2022/12/20 17:30:00,35.6, 0.3
2022/12/20 17:40:00,35.5, 0.3
2022/12/20 17:50:00,35.6,-0.0
2022/12/20 18:00:00,35.5,-0.3
2022/12/20 18:10:00,35.6,-0.3
2022/12/20 18:20:00,35.6,-0.2
2022/12/20 18:30:00,35.6,-0.3
2022/12/20 18:40:00,35.6, 0.1
2022/12/20 18:50:00,35.5,-0.1
2022/12/20 19:00:00,35.5, 0.1
2022/12/20 19:10:00,35.4, 0.1
2022/12/20 19:20:00,35.3, 0.1
2022/12/20 19:30:00,35.3, 0.2
2022/12/20 19:40:00,35.3,-0.1
2022/12/20 19:50:00,35.2, 0.1
2022/12/20 20:00:00,35.2,-0.4
2022/12/20 20:10:00,35.1,-0.6
2022/12/20 20:20:00,35.1,-0.6
2022/12/20 20:30:00,35.1,-0.5
2022/12/20 20:40:00,35.0,-0.7
2022/12/20 20:50:00,35.0,-0.9
2022/12/20 21:00:00,35.0,-0.8
2022/12/20 21:10:00,34.9,-0.8
2022/12/20 21:20:00,34.9,-1.0
2022/12/20 21:30:00,34.8,-1.1
2022/12/20 21:40:00,34.8,-1.0
2022/12/20 21:50:00,34.8,-1.3
2022/12/20 22:00:00,34.7,-1.0
2022/12/20 22:10:00,34.7,-0.9
2022/12/20 22:20:00,34.7,-1.2
2022/12/20 22:30:00,34.6,-0.9
2022/12/20 22:40:00,34.5,-1.1
2022/12/20 22:50:00,34.5,-1.1
2022/12/20 23:00:00,34.5,-0.9
2022/12/20 23:10:00,34.5,-1.1
2022/12/20 23:20:00,34.4,-1.2
2022/12/20 23:30:00,34.4,-1.3
2022/12/20 23:40:00,34.3,-0.8
2022/12/20 23:50:00,34.3,-1.3
